[[{"header":{"parameterUnit":"m.s-1","parameterCategory":1,"la1":30.2991,"la2":30.254,"lo1":-89.0895,"lo2":-89.0444,"dy":0.0017,"dx":0.0017,"nx":28,"ny":28,"refTime":"2025-01-16T09:00:00:Z","depth":0,"parameterNumber":2,"parameterNumberName":"U-component_of_WINDS"},"data":[0,0,0,0,0,0,0,0,0,0,0,0,0,0,0,0,0,0,0,0,0,0,0,0,0,0,0,0,0,0,0,0,0,0,0,0,0,0,0,0,0,0,0,0,0,0,0,0,0,0,0,0,0,0,0,0,0,0,1.7376,1.7376,0,1.7436,1.7437,1.7438,1.7427,1.7426,1.7425,1.7424,1.7487,1.749,1.7493,0,0,0,0,0,0,0,0,0,0,0,0,0,1.7253,1.7255,1.7376,1.7376,1.7377,1.7436,1.7437,1.7438,1.7427,1.7426,1.7425,1.7424,1.7486,1.749,1.7493,0,0,0,0,0,0,0,0,0,0,0,0,0,1.7309,1.7256,1.7375,1.7379,1.738,1.7436,1.7437,1.7438,1.7428,1.7426,1.7424,1.7423,1.7485,1.7489,1.7493,1.755,0,0,1.7506,1.7507,0,0,0,0,0,0,0,0,1.7306,1.7313,1.7378,1.7379,1.738,1.7422,1.7417,1.7476,1.7428,1.741,1.7424,1.7422,1.7467,1.7473,1.7487,1.7553,1.7556,1.7506,1.7508,1.751,1.7511,0,0,0,0,0,0,0,1.7302,1.7311,1.74,1.7379,1.738,1.7378,1.7384,1.7428,1.7447,1.7411,1.741,1.7418,1.7467,1.7484,1.7489,1.7556,1.7506,1.7509,1.7512,1.7513,1.7673,1.7674,0,0,0,0,0,0,1.7297,1.7308,1.7398,1.7401,1.7338,1.7382,1.7389,1.741,1.7446,1.745,1.7419,1.7417,1.7478,1.7484,1.7491,1.7561,1.751,1.7514,1.7516,1.7671,1.7673,1.7675,0,0,0,0,0,0,1.7294,1.7305,1.7395,1.7354,1.7366,1.7385,1.741,1.7413,1.7429,1.7452,1.7455,1.7432,1.7477,1.7485,1.7536,1.7563,1.7516,1.7519,1.7669,1.7671,1.7674,1.77,0,0,0,0,0,0,1.7291,1.7304,1.7325,1.7355,1.7368,1.7438,1.7412,1.7415,1.7435,1.7433,1.7465,1.7469,1.7476,1.753,1.754,1.7567,1.7522,1.7666,1.767,1.7673,1.7696,1.7703,1.7708,0,0,0,0,0,1.7286,1.733,1.7326,1.7337,1.7395,1.744,1.7447,1.7454,1.7438,1.746,1.7475,1.7468,1.7558,1.7535,1.7546,1.7575,1.7665,1.7669,1.7673,1.7694,1.7702,1.7708,0,0,0,0,0,0,1.7303,1.7334,1.733,1.7385,1.741,1.7438,1.7466,1.7462,1.7493,1.749,1.7497,1.7504,1.7556,1.757,1.7544,1.7632,1.7609,1.7615,1.7621,1.7629,1.7635,1.7631,1.7526,0,0,0,0,0,1.7313,1.7347,1.7372,1.7418,1.7431,1.7446,1.7466,1.7469,1.7495,1.7506,1.7525,1.7551,1.7585,1.7608,1.764,1.7698,1.7706,1.7724,1.773,1.7735,1.7741,1.7773,1.7782,1.7688,1.7688,1.7688,0,0,1.7335,1.7356,1.7376,1.7422,1.7442,1.7477,1.7455,1.7493,1.7519,1.7512,1.7561,1.7575,1.7605,1.766,1.7684,1.7673,1.7768,1.774,1.7744,1.7747,1.7779,1.7787,1.7795,1.7691,1.7691,1.769,0,0,1.7392,1.7411,1.7452,1.7472,1.7502,1.7512,1.7522,1.755,1.756,1.7609,1.7604,1.7636,1.7694,1.7716,1.7735,1.78,1.7796,1.7811,1.7842,1.7874,1.7882,1.7888,1.7913,1.7921,1.7816,1.7816,1.7816,0,1.7415,1.7468,1.7473,1.7512,1.7532,1.7527,1.7569,1.7588,1.7627,1.7642,1.7629,1.7703,1.7722,1.7782,1.7798,1.7813,1.7825,1.7808,1.788,1.7887,1.7893,1.7917,1.7926,1.7818,1.7818,1.7818,1.7818,0,1.7495,1.7531,1.7561,1.7599,1.7622,1.7663,1.7675,1.7698,1.7699,1.7711,1.7761,1.7784,1.7822,1.7837,1.7838,1.7897,1.7889,1.7878,1.7855,1.7904,1.7926,1.7935,1.7821,1.782,1.7819,1.7819,0,0,1.7565,1.7606,1.7617,1.7634,1.7667,1.7696,1.7736,1.7772,1.7793,1.782,1.7854,1.7904,1.7894,1.7915,1.7919,1.7947,1.7999,1.7932,1.7933,1.7945,1.8067,1.8076,1.8086,1.7995,1.7997,1.7999,1.8065,0,1.7627,1.7697,1.7703,1.7767,1.7801,1.7796,1.7831,1.7856,1.7868,1.7899,1.7912,1.7948,1.7931,1.7944,1.7971,1.7987,1.8024,1.7982,1.8029,1.803,1.8022,1.8098,1.8108,1.8169,1.8073,1.8075,1.8076,0,1.7708,1.7737,1.7804,1.7833,1.7847,1.7879,1.7913,1.7943,1.797,1.7977,1.8001,1.8001,1.8043,1.8018,1.8076,1.8048,1.8067,1.8077,1.808,1.8086,1.8057,1.8107,1.8189,1.8198,1.8089,1.8088,1.8087,0,1.7754,1.781,1.7858,1.7873,1.7907,1.7929,1.7945,1.7971,1.7993,1.8023,1.8037,1.8072,1.8091,1.8118,1.8128,1.8108,1.8187,1.8161,1.8194,1.8194,1.8212,1.8211,1.83,1.8223,1.8222,1.8222,1.8222,0,1.7823,1.7864,1.7879,1.7909,1.7955,1.7962,1.8008,1.8023,1.8046,1.8078,1.8076,1.8107,1.8117,1.815,1.8158,1.8206,1.8214,1.8222,1.8223,1.8223,1.8222,1.8236,1.8233,1.8225,1.8224,1.8224,1.8223,0,1.7883,1.7894,1.7946,1.7974,1.7982,1.8015,1.804,1.8068,1.8079,1.8121,1.8131,1.8149,1.8188,1.82,1.8246,1.8251,1.8308,1.8305,1.8299,1.8299,1.8332,1.8329,1.8434,1.8448,1.836,1.8361,1.8362,0,1.7926,1.7958,1.7989,1.8011,1.8027,1.8062,1.8084,1.8092,1.8115,1.8149,1.8174,1.8212,1.8243,1.8305,1.8322,1.8358,1.8357,1.8391,1.8362,1.8361,1.8359,1.8358,1.8361,1.8397,1.8398,1.8399,1.8399,0,1.8003,1.8007,1.8039,1.8073,1.81,1.8127,1.8154,1.8171,1.8183,1.821,1.8249,1.8273,1.832,1.8358,1.8395,1.8411,1.8408,1.8408,1.8418,1.8418,1.8413,1.8417,1.8315,1.8406,1.8405,1.8405,1.8404,1.8404,1.8057,1.8085,1.8112,1.8148,1.8168,1.8193,1.8222,1.8237,1.8269,1.8308,1.8311,1.8353,1.8381,1.8429,1.8447,1.8481,1.8471,1.8485,1.8489,1.8493,1.8496,1.8407,1.8488,1.8487,1.8487,1.8487,1.8487,0,1.8135,1.8151,1.8184,1.8221,1.825,1.8243,1.8272,1.8296,1.8334,1.8359,1.839,1.8435,1.8472,1.8492,1.8529,1.8553,1.8552,1.8562,1.8561,1.8565,1.8502,1.849,1.8562,1.8562,1.8562,1.8562,1.8562,1.8562,1.8178,1.8226,1.8234,1.8292,1.8309,1.835,1.8368,1.8391,1.8411,1.8462,1.8492,1.8505,1.8529,1.8568,1.8601,1.8606,1.8621,1.8632,1.8637,1.8577,1.857,1.8562,1.8552,1.8635,1.8635,1.8697,1.8698,1.8698]},{"header":{"parameterUnit":"m.s-1","parameterCategory":1,"la1":30.2991,"la2":30.254,"lo1":-89.0895,"lo2":-89.0444,"dy":0.0017,"dx":0.0017,"nx":28,"ny":28,"refTime":"2025-01-16T09:00:00:Z","depth":0,"parameterNumber":3,"parameterNumberName":"V-component_of_WINDS"},"data":[0,0,0,0,0,0,0,0,0,0,0,0,0,0,0,0,0,0,0,0,0,0,0,0,0,0,0,0,0,0,0,0,0,0,0,0,0,0,0,0,0,0,0,0,0,0,0,0,0,0,0,0,0,0,0,0,0,0,-0.3572,-0.3572,0,-0.3546,-0.3546,-0.3545,-0.3529,-0.3529,-0.3529,-0.3529,-0.3501,-0.3501,-0.35,0,0,0,0,0,0,0,0,0,0,0,0,0,-0.3607,-0.3607,-0.3572,-0.3572,-0.3571,-0.3546,-0.3546,-0.3545,-0.3529,-0.3529,-0.3529,-0.3529,-0.3502,-0.3501,-0.35,0,0,0,0,0,0,0,0,0,0,0,0,0,-0.3588,-0.3607,-0.3572,-0.356,-0.3559,-0.3546,-0.3546,-0.3545,-0.3529,-0.3529,-0.3529,-0.3529,-0.3502,-0.3501,-0.35,-0.3497,0,0,-0.3497,-0.3497,0,0,0,0,0,0,0,0,-0.3589,-0.3587,-0.3562,-0.3561,-0.356,-0.3541,-0.3548,-0.3529,-0.3529,-0.354,-0.3529,-0.3529,-0.3515,-0.3513,-0.3508,-0.3495,-0.3494,-0.3497,-0.3496,-0.3496,-0.3496,0,0,0,0,0,0,0,-0.359,-0.3588,-0.3562,-0.3562,-0.356,-0.3556,-0.3553,-0.3544,-0.3529,-0.3539,-0.3538,-0.3535,-0.3514,-0.3509,-0.3507,-0.3494,-0.3497,-0.3496,-0.3496,-0.3495,-0.3478,-0.3478,0,0,0,0,0,0,-0.3594,-0.3589,-0.3563,-0.3561,-0.3574,-0.3556,-0.3552,-0.3547,-0.3529,-0.3526,-0.3535,-0.3535,-0.3511,-0.3508,-0.3506,-0.3501,-0.3496,-0.3495,-0.3495,-0.3478,-0.3478,-0.3478,0,0,0,0,0,0,-0.3594,-0.3591,-0.3564,-0.3575,-0.3571,-0.3555,-0.3549,-0.3546,-0.3541,-0.3526,-0.3523,-0.3533,-0.351,-0.3507,-0.3499,-0.35,-0.3495,-0.3494,-0.3478,-0.3478,-0.3478,-0.3491,0,0,0,0,0,0,-0.3596,-0.3592,-0.3591,-0.3575,-0.357,-0.3557,-0.3549,-0.3546,-0.354,-0.3539,-0.3523,-0.352,-0.351,-0.3501,-0.3498,-0.3499,-0.3493,-0.3477,-0.3478,-0.3478,-0.3491,-0.3492,-0.3493,0,0,0,0,0,-0.3597,-0.3595,-0.3591,-0.3587,-0.3568,-0.3557,-0.3555,-0.3543,-0.354,-0.3539,-0.3528,-0.3521,-0.35,-0.35,-0.3497,-0.3497,-0.3477,-0.3478,-0.3478,-0.349,-0.3492,-0.3493,0,0,0,0,0,0,-0.3611,-0.3593,-0.3588,-0.3581,-0.3571,-0.3555,-0.3552,-0.3545,-0.3536,-0.3535,-0.3521,-0.3518,-0.3511,-0.3503,-0.3503,-0.3493,-0.3488,-0.3488,-0.3499,-0.35,-0.3501,-0.3503,-0.3492,0,0,0,0,0,-0.3614,-0.3607,-0.3591,-0.3587,-0.3582,-0.3568,-0.3563,-0.3555,-0.3544,-0.354,-0.3529,-0.3519,-0.351,-0.3504,-0.3496,-0.349,-0.3486,-0.3488,-0.3489,-0.349,-0.349,-0.3487,-0.3488,-0.3479,-0.3479,-0.3479,0,0,-0.3619,-0.3608,-0.3604,-0.3589,-0.3581,-0.3574,-0.3565,-0.3557,-0.3552,-0.3539,-0.353,-0.3522,-0.351,-0.3503,-0.3499,-0.3496,-0.3492,-0.3491,-0.3492,-0.3491,-0.3487,-0.3488,-0.3489,-0.3479,-0.3479,-0.3479,0,0,-0.3624,-0.3615,-0.361,-0.3602,-0.3589,-0.358,-0.3579,-0.3564,-0.3558,-0.355,-0.354,-0.3533,-0.3518,-0.351,-0.3504,-0.3506,-0.3499,-0.3504,-0.3509,-0.3506,-0.3507,-0.3507,-0.3508,-0.3509,-0.3504,-0.3504,-0.3504,0,-0.3632,-0.3621,-0.3609,-0.3602,-0.3596,-0.3584,-0.3579,-0.3572,-0.3556,-0.3552,-0.3549,-0.3531,-0.3521,-0.3512,-0.3513,-0.3508,-0.3507,-0.3505,-0.3508,-0.3508,-0.3509,-0.3509,-0.351,-0.3504,-0.3504,-0.3504,-0.3504,0,-0.3631,-0.3623,-0.3621,-0.3607,-0.3601,-0.3595,-0.3582,-0.3577,-0.357,-0.3561,-0.3553,-0.3541,-0.353,-0.3527,-0.352,-0.3517,-0.3516,-0.351,-0.3505,-0.351,-0.3511,-0.3511,-0.3505,-0.3505,-0.3505,-0.3505,0,0,-0.3644,-0.3624,-0.3623,-0.3617,-0.3602,-0.3596,-0.359,-0.3579,-0.3575,-0.3565,-0.356,-0.3548,-0.3543,-0.3536,-0.3527,-0.3525,-0.3528,-0.3519,-0.3519,-0.3521,-0.3524,-0.3528,-0.3529,-0.3523,-0.3523,-0.3523,-0.3525,0,-0.3647,-0.3636,-0.3625,-0.3617,-0.3611,-0.3599,-0.3594,-0.3584,-0.3576,-0.3569,-0.3559,-0.3551,-0.3545,-0.3541,-0.3538,-0.3528,-0.3528,-0.3528,-0.3517,-0.3517,-0.3521,-0.3529,-0.3533,-0.3536,-0.3525,-0.3525,-0.3525,0,-0.3649,-0.364,-0.3632,-0.3618,-0.3615,-0.361,-0.3599,-0.3593,-0.3582,-0.3576,-0.3568,-0.356,-0.3553,-0.3548,-0.3538,-0.3538,-0.3533,-0.3528,-0.3528,-0.3526,-0.3522,-0.3528,-0.3537,-0.3537,-0.3525,-0.3525,-0.3525,0,-0.366,-0.3646,-0.3639,-0.3634,-0.3617,-0.3614,-0.3607,-0.3596,-0.359,-0.3581,-0.3577,-0.3567,-0.3561,-0.3554,-0.3543,-0.354,-0.3534,-0.3529,-0.3529,-0.353,-0.3528,-0.3529,-0.3537,-0.3525,-0.3525,-0.3525,-0.3525,0,-0.3664,-0.366,-0.3643,-0.3639,-0.3634,-0.3622,-0.3617,-0.3609,-0.3599,-0.3593,-0.3582,-0.3577,-0.3563,-0.3556,-0.3547,-0.354,-0.3538,-0.3533,-0.3531,-0.3534,-0.3535,-0.3531,-0.353,-0.3526,-0.3526,-0.3526,-0.3526,0,-0.3675,-0.3664,-0.3656,-0.3641,-0.3638,-0.3634,-0.3622,-0.3617,-0.3608,-0.3601,-0.3599,-0.3585,-0.3576,-0.3565,-0.3552,-0.3546,-0.3541,-0.3537,-0.3545,-0.3543,-0.3545,-0.3545,-0.3551,-0.3551,-0.3539,-0.3539,-0.3539,0,-0.3679,-0.3675,-0.366,-0.3656,-0.3649,-0.3642,-0.3636,-0.3624,-0.3618,-0.3605,-0.3603,-0.3593,-0.3585,-0.3571,-0.356,-0.3551,-0.3547,-0.355,-0.3545,-0.3549,-0.3547,-0.3547,-0.3547,-0.3551,-0.3551,-0.3551,-0.3551,0,-0.3687,-0.3682,-0.3674,-0.3664,-0.3657,-0.3649,-0.364,-0.3637,-0.3623,-0.3617,-0.3608,-0.3602,-0.3589,-0.358,-0.3569,-0.3562,-0.3554,-0.3553,-0.3552,-0.3555,-0.356,-0.3558,-0.3547,-0.3552,-0.3552,-0.3552,-0.3552,-0.3552,-0.3694,-0.3691,-0.3679,-0.3671,-0.3663,-0.3655,-0.3651,-0.3641,-0.3634,-0.3623,-0.3616,-0.3607,-0.3596,-0.3581,-0.3574,-0.3567,-0.3564,-0.3564,-0.3563,-0.3564,-0.3565,-0.3561,-0.3565,-0.3565,-0.3565,-0.3565,-0.3565,0,-0.3702,-0.3694,-0.3686,-0.3675,-0.3668,-0.3662,-0.3652,-0.3646,-0.3639,-0.363,-0.3622,-0.3612,-0.3603,-0.3591,-0.3581,-0.3578,-0.3574,-0.3576,-0.3576,-0.3575,-0.3568,-0.3569,-0.3579,-0.3579,-0.3579,-0.3579,-0.3579,-0.3579,-0.3705,-0.3698,-0.3692,-0.3681,-0.3673,-0.3665,-0.366,-0.3652,-0.3645,-0.3634,-0.3627,-0.3619,-0.3609,-0.3598,-0.359,-0.3587,-0.3584,-0.3586,-0.3582,-0.3576,-0.3575,-0.3574,-0.3575,-0.3586,-0.3586,-0.3589,-0.3589,-0.3589]}]]